FW4266 Weather Reports


time (UTC)temp
F
wind
direction
speed
knots
gust
knots
rain 1hr
in
rain 24hr
in
rain mn
in
humidity
%
barometer
mb
20260506203540 66 230 0.0 3.5 0.00 0.05 0.00 60 1020.3
20260506203111 66 238 0.9 5.2 0.00 0.05 0.00 60 1020.4
20260506202538 66 171 2.6 5.2 0.00 0.05 0.00 57 1020.3
20260506202038 65 254 0.9 4.3 0.00 0.05 0.00 61 1020.4
20260506201539 66 243 0.9 4.3 0.00 0.05 0.00 62 1020.5
20260506201036 65 233 0.9 5.2 0.00 0.05 0.00 60 1020.5
20260506200537 65 293 0.9 6.1 0.00 0.05 0.00 63 1020.6
20260506200045 65 230 0.0 5.2 0.00 0.05 0.00 61 1020.5
20260506195534 65 41 0.9 5.2 0.00 0.13 0.00 59 1020.7
20260506195034 65 249 1.7 4.3 0.00 0.13 0.00 61 1020.7
20260506194534 64 236 0.9 2.6 0.00 0.13 0.00 59 1020.6
20260506194032 65 245 1.7 3.5 0.00 0.13 0.00 59 1020.6
20260506193531 64 226 0.9 3.5 0.00 0.13 0.00 61 1020.7
20260506193030 64 268 0.0 7.0 0.00 0.13 0.00 63 1020.6
20260506192529 64 267 1.7 5.2 0.00 0.13 0.00 61 1020.6
20260506192029 63 231 0.9 3.5 0.00 0.13 0.00 60 1020.7
20260506191529 63 347 0.0 5.2 0.00 0.13 0.00 61 1020.7
20260506191028 63 32 0.0 5.2 0.00 0.13 0.00 62 1020.8
20260506190527 63 262 1.7 4.3 0.00 0.13 0.00 61 1020.9
20260506190034 62 16 0.9 4.3 0.00 0.13 0.00 63 1020.9
20260506185525 62 231 0.0 4.3 0.00 0.13 0.00 63 1021.0
20260506185026 61 259 0.9 5.2 0.00 0.13 0.00 61 1021.1
20260506184525 62 256 0.9 4.3 0.00 0.13 0.00 64 1021.1
20260506184027 62 277 0.9 4.3 0.00 0.13 0.00 65 1021.1
20260506183524 63 232 0.9 5.2 0.00 0.13 0.00 64 1021.2
20260506183022 62 238 0.0 5.2 0.00 0.13 0.00 64 1021.3
20260506182522 61 227 0.9 4.3 0.00 0.13 0.00 66 1021.2
20260506182026 61 202 0.9 5.2 0.00 0.13 0.00 61 1021.2
20260506181521 62 224 0.0 3.5 0.00 0.13 0.00 65 1021.2
20260506181020 61 258 0.0 5.2 0.00 0.13 0.00 62 1021.3
20260506180520 61 246 1.7 5.2 0.00 0.13 0.00 64 1021.3
20260506180021 60 250 0.9 4.3 0.00 0.13 0.00 65 1021.3
20260506175519 61 236 0.9 3.5 0.00 0.13 0.00 64 1021.3
20260506175019 61 134 0.9 3.5 0.00 0.13 0.00 62 1021.4
20260506174518 61 254 0.0 0.9 0.00 0.13 0.00 63 1021.4
20260506174016 60 251 0.0 1.7 0.00 0.13 0.00 67 1021.6
20260506173515 59 207 0.0 1.7 0.00 0.13 0.00 66 1021.5
20260506173013 58 19 0.0 4.3 0.00 0.13 0.00 65 1021.6
20260506172512 57 258 0.9 4.3 0.00 0.13 0.00 63 1021.5
20260506172013 57 210 0.9 4.3 0.00 0.13 0.00 65 1021.5
20260506171516 57 261 0.9 4.3 0.00 0.13 0.00 67 1021.5
20260506171011 57 219 0.0 3.5 0.00 0.13 0.00 69 1021.5
20260506170513 57 231 0.9 3.5 0.00 0.13 0.00 67 1021.5
20260506170011 56 236 0.0 3.5 0.00 0.13 0.00 67 1021.6
20260506165510 56 255 0.0 3.5 0.00 0.13 0.00 68 1021.6
20260506165008 55 235 0.9 3.5 0.00 0.13 0.00 69 1021.7
20260506164510 56 306 0.9 0.0 0.00 0.00 0.00 67 1021.7
20260506164007 56 248 0.0 3.5 0.00 0.13 0.00 68 1021.6
20260506163505 56 238 0.0 2.6 0.00 0.13 0.00 69 1021.6
20260506163004 55 252 0.0 3.5 0.00 0.13 0.00 70 1021.6
20260506162505 55 252 0.0 3.5 0.00 0.13 0.00 67 1021.6
20260506162005 55 250 0.0 2.6 0.00 0.13 0.00 70 1021.5
20260506161502 55 268 0.0 3.5 0.00 0.13 0.00 71 1021.6
20260506161100 54 194 0.0 3.5 0.00 0.13 0.00 71 1021.5
20260506160600 54 212 0.0 2.6 0.00 0.13 0.00 71 1021.6
20260506155558 53 209 0.0 2.6 0.00 0.14 0.00 72 1021.5
20260506155057 53 263 0.0 0.9 0.00 0.14 0.00 71 1021.6
20260506154556 53 220 0.0 0.0 0.00 0.14 0.00 73 1021.6
20260506154057 52 233 0.0 2.6 0.00 0.14 0.00 74 1021.6
20260506153553 52 240 0.0 2.6 0.00 0.14 0.00 68 1021.5
20260506153107 52 255 0.0 1.7 0.00 0.14 0.00 71 1021.5
20260506152552 51 238 0.0 0.0 0.00 0.14 0.00 72 1021.5
20260506152049 51 264 0.0 0.0 0.00 0.14 0.00 71 1021.4
20260506151549 51 264 0.0 0.0 0.00 0.14 0.00 72 1021.5
20260506151047 50 268 0.0 0.9 0.00 0.14 0.00 74 1021.4
20260506150546 49 269 0.0 0.9 0.00 0.14 0.00 75 1021.6
20260506150044 49 49 0.0 0.0 0.00 0.14 0.00 78 1021.5
20260506145546 48 49 0.0 0.0 0.00 0.16 0.00 79 1021.5
20260506145041 47 49 0.0 0.0 0.00 0.16 0.00 81 1021.5
20260506144541 47 49 0.0 0.0 0.00 0.16 0.00 82 1021.4
20260506144041 46 49 0.0 0.0 0.00 0.16 0.00 82 1021.4
20260506143542 46 49 0.0 0.9 0.00 0.16 0.00 83 1021.4
20260506143041 45 49 0.0 0.9 0.00 0.16 0.00 83 1021.4
20260506142542 45 49 0.0 1.7 0.00 0.16 0.00 82 1021.4
20260506142040 44 49 0.9 1.7 0.00 0.16 0.00 82 1021.4
20260506141541 44 49 0.9 1.7 0.00 0.16 0.00 82 1021.3
20260506141040 44 49 0.0 1.7 0.00 0.16 0.00 82 1021.3
20260506140544 44 49 0.9 1.7 0.00 0.16 0.00 82 1021.1
20260506140040 43 49 0.9 1.7 0.00 0.16 0.00 82 1021.1
20260506135539 43 49 0.9 1.7 0.00 0.17 0.00 82 1021.2
20260506135039 43 49 0.9 1.7 0.00 0.17 0.00 81 1021.1
20260506134538 43 49 0.9 1.7 0.00 0.17 0.00 81 1021.1
20260506134037 44 49 0.9 1.7 0.00 0.17 0.00 81 1020.9
20260506133537 44 49 0.9 1.7 0.00 0.17 0.00 81 1020.8
20260506133036 44 49 0.9 1.7 0.00 0.17 0.00 81 1020.8
20260506132536 44 49 0.9 1.7 0.00 0.17 0.00 81 1020.8
20260506132036 44 49 0.9 1.7 0.00 0.17 0.00 81 1020.7
20260506131537 43 49 0.9 1.7 0.00 0.17 0.00 81 1020.8
20260506131035 43 49 0.9 1.7 0.00 0.17 0.00 82 1020.6
20260506130536 43 49 0.9 1.7 0.00 0.17 0.00 82 1020.7
20260506130038 43 49 0.0 1.7 0.00 0.17 0.00 82 1020.5
20260506125532 43 49 0.9 1.7 0.00 0.17 0.00 82 1020.5
20260506125032 43 49 0.9 1.7 0.00 0.17 0.00 82 1020.4
20260506124533 43 49 0.9 1.7 0.00 0.17 0.00 82 1020.4
20260506124032 43 49 0.9 1.7 0.00 0.17 0.00 82 1020.5
20260506123532 42 49 0.9 1.7 0.00 0.17 0.00 83 1020.3
20260506123032 42 49 0.0 1.7 0.00 0.17 0.00 83 1020.3
20260506122531 42 49 0.9 1.7 0.00 0.17 0.00 83 1020.4
20260506122031 42 49 0.9 1.7 0.00 0.17 0.00 82 1020.3
20260506121530 43 49 0.9 1.7 0.00 0.17 0.00 82 1020.3
20260506121030 43 49 0.9 1.7 0.00 0.17 0.00 83 1020.2
20260506120530 43 49 0.9 1.7 0.00 0.17 0.00 82 1020.1
20260506120032 43 49 1.7 1.7 0.00 0.17 0.00 83 1020.3
20260506115530 43 49 0.0 1.7 0.00 0.17 0.00 82 1020.3
20260506115029 43 49 0.9 1.7 0.00 0.17 0.00 82 1020.3
20260506114528 43 49 0.9 1.7 0.00 0.17 0.00 82 1020.3
20260506114028 43 49 0.9 1.7 0.00 0.17 0.00 82 1020.2
20260506113529 43 49 0.9 1.7 0.00 0.17 0.00 81 1020.1
20260506113027 43 49 0.0 0.9 0.00 0.17 0.00 82 1019.9
20260506112530 43 49 0.0 1.7 0.00 0.17 0.00 82 1020.0
20260506112030 43 49 0.9 1.7 0.00 0.17 0.00 83 1019.9
20260506111530 43 49 0.9 1.7 0.00 0.17 0.00 82 1020.0
20260506111025 43 49 0.9 1.7 0.00 0.17 0.00 83 1019.9
20260506110524 43 49 0.9 1.7 0.00 0.17 0.00 83 1019.9
20260506110023 43 49 0.9 1.7 0.00 0.17 0.00 83 1019.7
20260506105524 43 49 0.9 1.7 0.00 0.17 0.00 82 1019.6
20260506105022 43 49 0.9 1.7 0.00 0.17 0.00 82 1019.8
20260506104522 43 49 0.9 1.7 0.00 0.17 0.00 82 1019.8
20260506104022 43 49 0.9 1.7 0.00 0.17 0.00 82 1019.7
20260506103522 43 49 0.9 1.7 0.00 0.17 0.00 83 1019.5
20260506103019 43 49 0.9 1.7 0.00 0.17 0.00 82 1019.6
20260506102518 44 49 0.9 1.7 0.00 0.17 0.00 82 1019.6
20260506102018 44 49 0.0 0.9 0.00 0.17 0.00 81 1019.7
20260506101517 44 49 0.0 1.7 0.00 0.17 0.00 82 1019.6
20260506101017 44 49 0.0 1.7 0.00 0.17 0.00 82 1019.5
20260506100517 44 49 0.9 1.7 0.00 0.17 0.00 82 1019.5
20260506100017 44 60 0.0 0.9 0.00 0.17 0.00 83 1019.5
20260506095517 44 60 0.0 1.7 0.00 0.17 0.00 82 1019.6
20260506095019 44 60 0.9 1.7 0.00 0.17 0.00 82 1019.3
20260506094517 44 60 0.0 1.7 0.00 0.17 0.00 82 1019.5
20260506094014 44 63 0.9 1.7 0.00 0.17 0.00 82 1019.4
20260506093516 45 63 0.9 1.7 0.00 0.17 0.00 82 1019.4
20260506093011 45 64 0.9 1.7 0.00 0.17 0.00 82 1019.5
20260506092510 45 72 0.0 0.9 0.00 0.17 0.00 82 1019.6
20260506092010 46 77 0.0 0.9 0.00 0.17 0.00 82 1019.4
20260506091509 46 77 0.0 0.9 0.00 0.17 0.00 82 1019.5
20260506091012 46 82 0.0 0.9 0.00 0.17 0.00 83 1019.6
20260506090508 46 82 0.0 0.9 0.00 0.17 0.00 83 1019.5
20260506090007 46 82 0.0 0.9 0.00 0.17 0.00 82 1019.5
20260506085506 47 82 0.0 0.9 0.00 0.17 0.00 83 1019.5
20260506085006 47 84 0.0 0.9 0.00 0.17 0.00 82 1019.5
20260506084506 47 84 0.0 0.9 0.00 0.17 0.00 82 1019.6
20260506084006 47 87 0.0 0.9 0.00 0.17 0.00 82 1019.5
20260506083506 47 87 0.0 0.9 0.00 0.17 0.00 82 1019.6
20260506083014 47 87 0.0 0.0 0.00 0.17 0.00 82 1019.5
20260506082505 47 87 0.0 0.9 0.00 0.17 0.00 82 1019.5
20260506082004 47 87 0.0 0.9 0.00 0.17 0.00 81 1019.5
20260506081504 47 87 0.0 0.9 0.00 0.17 0.00 82 1019.6
20260506081006 47 87 0.0 0.9 0.00 0.17 0.00 83 1019.7
20260506080504 47 213 0.0 0.9 0.00 0.17 0.00 83 1019.7
20260506073504 47 212 0.0 1.7 0.00 0.17 0.00 82 1019.5
20260506073004 47 46 0.0 0.9 0.00 0.17 0.00 82 1019.5
20260506072502 47 46 0.0 0.9 0.00 0.17 0.00 82 1019.3
20260506072101 47 46 0.0 0.9 0.00 0.17 0.00 82 1019.3
20260506071600 47 46 0.0 0.9 0.00 0.17 0.00 82 1019.3
20260506071059 47 46 0.0 0.9 0.00 0.17 0.00 82 1019.3
20260506070558 47 46 0.0 0.9 0.00 0.17 0.00 83 1019.3
20260506062055 47 46 0.0 0.9 0.00 0.17 0.17 83 1018.9
20260506061555 47 46 0.0 0.9 0.00 0.17 0.17 83 1019.0
20260506061055 47 46 0.0 0.9 0.00 0.17 0.17 83 1019.0
20260506060555 47 46 0.0 0.9 0.00 0.17 0.17 83 1019.0
20260506051050 47 46 0.0 0.9 0.00 0.17 0.17 82 1018.5
20260506050550 47 46 0.0 0.9 0.00 0.17 0.17 82 1018.4
20260506050107 47 46 0.0 0.9 0.00 0.17 0.17 82 1018.3
20260506045048 47 46 0.0 0.9 0.00 0.17 0.17 82 1018.3
20260506044548 47 46 0.0 0.9 0.00 0.17 0.17 82 1018.3
20260506044048 47 46 0.0 0.9 0.00 0.17 0.17 82 1018.3
20260506043548 47 46 0.0 0.9 0.00 0.17 0.17 82 1018.2
20260506043049 47 46 0.0 0.9 0.00 0.17 0.17 82 1018.2
20260506042547 47 46 0.0 0.9 0.00 0.17 0.17 82 1018.1
20260506042050 47 46 0.0 0.0 0.00 0.17 0.17 82 1018.1
20260506041558 47 46 0.0 0.9 0.00 0.17 0.17 82 1018.1
20260506041045 47 46 0.0 0.9 0.00 0.17 0.17 82 1018.0
20260506040545 47 46 0.0 0.9 0.00 0.17 0.17 82 1017.9
20260506040045 47 46 0.0 0.9 0.00 0.17 0.17 82 1017.9
20260506035544 48 46 0.0 0.9 0.00 0.17 0.17 82 1017.9
20260506035044 48 46 0.0 0.0 0.00 0.17 0.17 81 1017.7
20260506034551 48 46 0.0 0.0 0.00 0.17 0.17 80 1017.6
20260506034042 48 46 0.0 0.9 0.00 0.17 0.17 80 1017.5
20260506033543 48 46 0.0 0.9 0.00 0.17 0.17 81 1017.6
20260506033043 47 46 0.0 0.9 0.00 0.17 0.17 82 1017.5
20260506032545 48 48 0.0 0.9 0.00 0.17 0.17 83 1017.5
20260506032042 48 46 0.0 0.9 0.00 0.17 0.17 82 1017.4
20260506031543 48 46 0.0 0.9 0.00 0.17 0.17 82 1017.4
20260506031041 48 46 0.0 0.0 0.00 0.17 0.17 82 1017.3
20260506030545 48 48 0.0 0.0 0.00 0.17 0.17 81 1017.3
20260506030040 48 48 0.0 0.0 0.00 0.17 0.17 81 1017.2
20260506025539 48 48 0.0 0.0 0.00 0.17 0.17 80 1017.2
20260506025039 48 48 0.0 0.0 0.00 0.17 0.17 79 1017.1
20260506024539 48 48 0.0 0.0 0.00 0.17 0.17 79 1017.1
20260506024039 48 48 0.0 0.0 0.00 0.17 0.17 80 1017.0
20260506023539 48 48 0.0 0.0 0.00 0.17 0.17 81 1017.1
20260506023039 48 48 0.0 0.0 0.00 0.17 0.17 81 1017.1
20260506022538 48 48 0.0 0.9 0.00 0.17 0.17 80 1017.0
20260506022041 48 48 0.0 0.9 0.00 0.17 0.17 80 1017.0
20260506021538 49 46 0.0 0.0 0.00 0.17 0.17 80 1016.8
20260506021037 49 46 0.0 0.9 0.00 0.17 0.17 80 1016.8
20260506020538 49 46 0.0 0.9 0.00 0.17 0.17 79 1016.9
20260506020040 49 48 0.0 0.9 0.00 0.17 0.17 79 1016.8
20260506015537 49 48 0.0 0.9 0.00 0.17 0.17 80 1016.7
20260506015037 49 48 0.0 0.0 0.00 0.17 0.17 80 1016.7
20260506014538 49 48 0.0 0.0 0.00 0.17 0.17 80 1016.6
20260506014037 49 48 0.0 0.0 0.00 0.17 0.17 80 1016.6
20260506013537 49 48 0.0 0.9 0.00 0.17 0.17 79 1016.6
20260506013050 49 49 0.0 0.9 0.00 0.17 0.17 80 1016.5
20260506012539 49 48 0.0 2.6 0.00 0.17 0.17 78 1016.7
20260506012037 49 41 0.9 2.6 0.00 0.17 0.17 79 1016.6
20260506011542 49 53 0.0 5.2 0.00 0.17 0.17 78 1016.5
20260506011036 49 63 0.9 6.1 0.00 0.17 0.17 78 1016.5
20260506010537 49 46 2.6 6.1 0.00 0.17 0.17 78 1016.6
20260506010037 48 56 1.7 5.2 0.00 0.17 0.17 77 1016.5
20260506005535 48 56 2.6 5.2 0.00 0.17 0.17 78 1016.3
20260506005034 48 64 2.6 5.2 0.00 0.17 0.17 77 1016.4
20260506004534 48 41 2.6 5.2 0.00 0.17 0.17 77 1016.1
20260506004035 48 31 0.9 5.2 0.00 0.17 0.17 79 1016.3
20260506003534 48 61 2.6 5.2 0.00 0.17 0.17 78 1016.1
20260506003033 48 53 3.5 6.1 0.00 0.17 0.17 80 1016.2
20260506002533 48 49 2.6 7.0 0.00 0.17 0.17 79 1016.2
20260506002032 48 48 2.6 7.0 0.00 0.17 0.17 80 1016.1
20260506001533 48 40 3.5 7.0 0.00 0.17 0.17 81 1016.1
20260506001033 48 27 2.6 7.0 0.00 0.17 0.17 81 1016.2
20260506000532 48 45 3.5 7.0 0.00 0.17 0.17 81 1016.1
20260506000032 49 54 2.6 7.0 0.00 0.17 0.17 81 1016.1
20260505235532 49 48 3.5 7.0 0.00 0.18 0.17 80 1015.9
20260505235032 50 45 3.5 6.1 0.00 0.18 0.17 80 1015.8
20260505234533 50 86 1.7 6.1 0.00 0.18 0.17 81 1015.7
20260505234033 50 56 1.7 5.2 0.00 0.18 0.17 81 1015.8
20260505233530 50 30 1.7 3.5 0.00 0.18 0.17 82 1016.0
20260505233029 50 60 0.9 4.3 0.00 0.18 0.17 83 1016.1
20260505232528 50 114 0.0 4.3 0.00 0.18 0.17 85 1016.1
20260505232028 50 236 0.0 1.7 0.00 0.18 0.17 85 1016.3
20260505231528 50 248 0.0 0.9 0.01 0.18 0.17 86 1016.5
20260505231025 49 248 0.0 0.9 0.02 0.18 0.17 86 1016.5
20260505230525 49 240 0.0 0.9 0.02 0.18 0.17 85 1016.7
20260505230024 48 272 0.0 0.9 0.03 0.18 0.17 85 1016.6
20260505225524 48 54 0.0 0.9 0.03 0.21 0.17 86 1016.7
20260505225027 48 55 0.0 2.6 0.03 0.21 0.17 86 1016.8
20260505224524 48 53 0.0 2.6 0.03 0.21 0.17 85 1016.8
20260505224023 48 59 0.0 1.7 0.03 0.21 0.17 86 1016.8
20260505223526 48 150 0.0 1.7 0.03 0.21 0.17 86 1017.0
20260505223026 47 211 0.0 0.9 0.03 0.21 0.17 86 1017.0
20260505222527 47 226 0.0 0.9 0.03 0.21 0.17 86 1017.0
20260505222023 47 219 0.0 0.9 0.03 0.21 0.17 86 1017.0
20260505221523 47 236 0.0 0.9 0.03 0.20 0.16 86 1017.1
20260505221022 47 236 0.0 0.9 0.02 0.19 0.15 85 1017.1
20260505220522 47 236 0.0 0.9 0.02 0.19 0.15 85 1017.0
20260505220035 47 236 0.0 1.7 0.01 0.18 0.14 85 1017.2
20260505215523 47 264 0.0 2.6 0.01 0.21 0.14 85 1017.0
20260505215021 47 243 0.0 2.6 0.01 0.21 0.14 85 1017.2
20260505214523 47 259 0.0 3.5 0.01 0.21 0.14 85 1017.0
20260505214020 47 268 0.0 2.6 0.01 0.21 0.14 86 1017.0
20260505213523 47 207 0.0 1.7 0.01 0.21 0.14 85 1016.9
20260505213021 47 220 0.0 1.7 0.01 0.21 0.14 85 1017.0
20260505212520 47 250 0.0 1.7 0.01 0.21 0.14 85 1017.1
20260505212022 47 245 0.0 1.7 0.01 0.21 0.14 85 1017.1
20260505211519 47 254 0.0 2.6 0.00 0.20 0.13 85 1017.0
20260505211021 47 256 0.9 2.6 0.00 0.20 0.13 85 1016.9
20260505210521 47 289 0.9 0.0 0.00 0.00 0.13 85 1016.9
20260505210017 48 273 0.9 2.6 0.01 0.20 0.13 85 1016.9
20260505205517 48 257 0.0 4.3 0.01 0.26 0.13 86 1016.8
20260505205016 48 264 0.0 4.3 0.01 0.26 0.13 86 1016.8
20260505204515 48 246 0.0 3.5 0.01 0.26 0.13 86 1016.8